This is the latest recevied weather packets stored in our database for station/object N4TLC. If no packets are shown the sender has not sent any weather packets the latest 10 day(s).
| Time | Temp. | Humidity | Pressure | Rain* | Wind** | Luminosity | Snow |
|---|---|---|---|---|---|---|---|
| 1777850802 | 19.44° C | 27% | 1017.4 hPa | 0 mm | - | 45 W/m² | - |
| 1777850500 | 19.44° C | 27% | 1017.6 hPa | 0 mm | - | 50 W/m² | - |
| 1777850198 | 19.44° C | 27% | 1017.4 hPa | 0 mm | - | 61 W/m² | - |
| 1777849894 | 20° C | 26% | 1017.5 hPa | 0 mm | - | 75 W/m² | - |
| 1777849591 | 20.56° C | 25% | 1017.6 hPa | 0 mm | - | 88 W/m² | - |
| 1777849288 | 20.56° C | 26% | 1017.4 hPa | 0 mm | - | 104 W/m² | - |
| 1777848986 | 20.56° C | 26% | 1017.5 hPa | 0 mm | - | 124 W/m² | - |
| 1777848685 | 20.56° C | 25% | 1017.6 hPa | 0 mm | - | 143 W/m² | - |
| 1777848383 | 20° C | 25% | 1017.5 hPa | 0 mm | - | 162 W/m² | - |
| 1777848081 | 20° C | 24% | 1017.5 hPa | 0 mm | - | 177 W/m² | - |
| 1777847779 | 20° C | 25% | 1017.7 hPa | 0 mm | - | 194 W/m² | - |
| 1777847474 | 20° C | 24% | 1017.7 hPa | 0 mm | - | 212 W/m² | - |
| 1777847172 | 20° C | 24% | 1017.7 hPa | 0 mm | - | 232 W/m² | - |
| 1777846870 | 20.56° C | 23% | 1017.7 hPa | 0 mm | - | 254 W/m² | - |
| 1777846568 | 20° C | 24% | 1017.8 hPa | 0 mm | - | 268 W/m² | - |
| 1777846265 | 20° C | 24% | 1018 hPa | 0 mm | - | 290 W/m² | - |
| 1777845961 | 20° C | 25% | 1018 hPa | 0 mm | - | 315 W/m² | - |
| 1777845658 | 19.44° C | 25% | 1018.1 hPa | 0 mm | - | 340 W/m² | - |
| 1777845355 | 20° C | 24% | 1018 hPa | 0 mm | - | 357 W/m² | - |
| 1777845052 | 19.44° C | 24% | 1018.1 hPa | 0 mm | - | 382 W/m² | - |
| 1777844750 | 20° C | 23% | 1018.4 hPa | 0 mm | - | 409 W/m² | - |
| 1777844446 | 19.44° C | 23% | 1018.2 hPa | 0 mm | - | 431 W/m² | - |
| 1777844145 | 20° C | 23% | 1018.2 hPa | 0 mm | - | 452 W/m² | - |
| 1777843841 | 20° C | 22% | 1018.4 hPa | 0 mm | - | 473 W/m² | - |
| 1777843539 | 20° C | 23% | 1018.4 hPa | 0 mm | - | 493 W/m² | - |
* Rain latest hour (hover to see other rain measurements)
** Current wind speed in m/s (hover to see current wind gust speed)